Location: Newark
(50.0306°N, 2.3272°E)
Time: 14:24:12
(UTC+00:00)

Vanguard 1 Rocket - Pass Details

Date: 16 December 2019
Orbit: 650 x 4226 km, 34.3° (Epoch: 25 January)

Event Time Altitude Azimuth Distance (km) Brightness Sun altitude
Rises 16:23:55 0° 194° (SSW) 8,438 13.1 -5.5°
Reaches altitude 10° 16:32:29 10° 181° (S) 7,385 12.4 -6.7°
Maximum altitude 16:47:46 21° 143° (SE) 5,872 11.4 -8.9°
Drops below altitude 10° 16:59:49 10° 104° (ESE) 5,791 11.0 -10.6°
Enters shadow 17:02:50 - 95° (E) 6,015 11.0 -11.1°
Sets 17:05:05 0° 89° (E) 6,244 - -11.4°
